This is the latest recevied weather packets stored in our database for station/object KB2AHZ. If no packets are shown the sender has not sent any weather packets the latest 10 day(s).
| Time | Temp. | Humidity | Pressure | Rain* | Wind** | Luminosity | Snow |
|---|---|---|---|---|---|---|---|
| 1777144600 | 30° C | 42% | 1007.3 hPa | 0 mm | - | 635 W/m² | - |
| 1777144296 | 30.56° C | 40% | 1007.2 hPa | 0 mm | - | 406 W/m² | - |
| 1777143992 | 30.56° C | 40% | 1007.3 hPa | 0 mm | - | 795 W/m² | - |
| 1777143688 | 30° C | 43% | 1007.3 hPa | 0 mm | - | 813 W/m² | - |
| 1777143385 | 31.11° C | 40% | 1007.5 hPa | 0 mm | - | 289 W/m² | - |
| 1777143081 | 30.56° C | 39% | 1007.6 hPa | 0 mm | - | 348 W/m² | - |
| 1777142776 | 30.56° C | 39% | 1007.7 hPa | 0 mm | - | 639 W/m² | - |
| 1777142474 | 30.56° C | 38% | 1007.7 hPa | 0 mm | - | 784 W/m² | - |
| 1777142173 | 30.56° C | 37% | 1007.8 hPa | 0 mm | - | 795 W/m² | - |
| 1777141869 | 31.11° C | 38% | 1007.8 hPa | 0 mm | - | 800 W/m² | - |
| 1777141566 | 30.56° C | 39% | 1007.8 hPa | 0 mm | - | 802 W/m² | - |
| 1777141266 | 30.56° C | 39% | 1007.8 hPa | 0 mm | - | 833 W/m² | - |
| 1777140962 | 30° C | 41% | 1007.7 hPa | 0 mm | - | 806 W/m² | - |
| 1777140658 | 30° C | 41% | 1008.2 hPa | 0 mm | - | 824 W/m² | - |
| 1777140355 | 29.44° C | 39% | 1008.1 hPa | 0 mm | - | 818 W/m² | - |
| 1777140053 | 30° C | 37% | 1008.3 hPa | 0 mm | - | 836 W/m² | - |
| 1777139750 | 30° C | 37% | 1008.2 hPa | 0 mm | - | 844 W/m² | - |
| 1777139445 | 31.11° C | 39% | 1008.4 hPa | 0 mm | - | 806 W/m² | - |
| 1777139141 | 30.56° C | 39% | 1008.4 hPa | 0 mm | - | 843 W/m² | - |
| 1777138838 | 30° C | 40% | 1008.3 hPa | 0 mm | - | 833 W/m² | - |
| 1777138533 | 30° C | 41% | 1008.5 hPa | 0 mm | - | 842 W/m² | - |
| 1777138230 | 30° C | 41% | 1008.3 hPa | 0 mm | - | 843 W/m² | - |
| 1777137927 | 29.44° C | 42% | 1008.3 hPa | 0 mm | - | 850 W/m² | - |
| 1777137622 | 29.44° C | 43% | 1008.7 hPa | 0 mm | - | 847 W/m² | - |
| 1777137320 | 29.44° C | 44% | 1008.5 hPa | 0 mm | - | 838 W/m² | - |
* Rain latest hour (hover to see other rain measurements)
** Current wind speed in m/s (hover to see current wind gust speed)